Weather in Araraquara

Brazil     21°47′56″S   48°10′37″W
temp.,
°C
wind,
m/s
gust,
m/s
humid.,
%
clouds,
%
prec.,
mm/h
press.,
hPa
HPBL,
m
21 june, mon
mon2100:00+17ssw2274100 0.0 102079
03:00+13sse228912 0.0 102025
06:00+15ese2676100 0.0 1020213
09:00+18e346417 0.0 1021414
12:00+24ene11445 0.0 1019857
15:00+26w2240100 0.0 10161436
18:00+20sse2255100 0.0 101714
21:00+20sse2255100 0.0 101931
22 june, tue
tue2200:00+20e2255100 0.0 101919
03:00+19ese235890 0.0 101874
06:00+18se245698 0.0 101896
09:00+20ese235063 0.0 1020227
12:00+26s32405 0.0 10191035
15:00+27sw3239100 0.0 10161453
18:00+21sse3457100 0.0 101758
21:00+18se3976100 0.0 1019173
23 june, wed
wed2300:00+16se310841 0.0 1020235
03:00+15se39905 0.0 1020251
06:00+14se39890 0.0 1020235
09:00+19ese58635 0.0 1021439
12:00+25e44455 0.0 10191020
15:00+27ese32405 0.0 10161504
18:00+22se34575 0.0 101750
21:00+18se38648 0.0 1018126
24 june, thu
thu2400:00+16ese35695 0.0 101879
03:00+16e512725 0.0 1017243
06:00+16ene512735 0.0 1017263
09:00+20ne610565 0.0 1017342
12:00+28nne57374 0.0 10161090
15:00+31nnw46293 0.0 10132641
18:00+24ne334226 0.0 101340
21:00+21ne334859 0.0 101434
25 june, fri
fri2500:00+20ne4752100 0.0 101491
03:00+18ne3657100 0.0 101490
06:00+17n1160100 0.0 101511
09:00+23nne3445100 0.0 1017244
12:00+28n4533100 0.0 10161079
15:00+30nnw332995 0.0 10131793
18:00+24ene334111 0.0 101321
21:00+22ene33464 0.0 101532